Regional Weather Roundup
Issued by NWS Sterling, VA

Home | Current Version | Previous Version | Text Only | Print | Product List | Glossary Off
Versions: 1 2 3 4 5 6 7 8 9 10 11 12 13 14 15 16 17 18 19 20 21 22 23 24 25 26 27 28 29 30 31 32 33 34 35 36 37 38 39 40 41 42 43 44 45 46 47 48

000
ASUS41 KLWX 280210
RWRLWX

REGIONAL WEATHER ROUNDUP
NATIONAL WEATHER SERVICE BALTIMORE MD/WASHINGTON DC
900 PM EST FRI FEB 27 2015

Note: "FAIR" indicates few or no clouds below 12,000 feet
with no significant weather and/or obstructions to visibility.
 TC=TEMPERATURE CELSIUS

 * =Non NWS site. Station does not report precipitation (e.g. rain,
    snow, etc.), thunder, or fog.

DCZ001-MDZ009-015-VAZ040>042-051-053>054-280300-
WASHINGTON METRO

CITY           SKY/WX    TMP DP  RH WIND       PRES   REMARKS
WASHINGTON NAT CLEAR     29  10  45 N12       30.60R WCI  19
DULLES         CLEAR     24   3  40 N10       30.59R WCI  14
ANDREWS AFB    CLEAR     23  11  60 N9        30.58R WCI  13
FT BELVOIR     CLEAR     28   4  36 N12G18    30.60R WCI  18
QUANTICO       CLEAR     28  10  46 N9        30.61R WCI  19
COLLEGE PARK*  CLEAR     28   9  43 N9        30.60R WCI  20
LEESBURG*      CLEAR     25   9  50 N13       30.60R WCI  13
MANASSAS*      CLEAR     27  10  50 N7        30.59
GAITHERSBURG*  CLEAR     21   1  42 CALM      30.62R

$$

MDZ006>007-011-014-280300-
BALTIMORE METRO

CITY           SKY/WX    TMP DP  RH WIND       PRES   REMARKS
BWI AIRPORT    CLEAR     25   6  44 NW8       30.58R WCI  16
MD SCIENCE CTR   N/A     27   8  44 MISG      30.66R
MARTIN STATE   CLEAR     25  12  58 CALM      30.61R
ANNAPOLIS      CLEAR     23  15  71 W3        30.59R
FORT MEADE*    CLEAR     25   9  50 NW6       30.61R

$$

MDZ012-015-019>023-280300-
MARYLAND EASTERN SHORE

CITY           SKY/WX    TMP DP  RH WIND       PRES   REMARKS
OCEAN CITY     CLEAR     23  17  78 N6        30.58R
SALISBURY      CLEAR     24  15  68 CALM      30.57R
BAY BRIDGE AP*   N/A     27  14  59 N3        30.59R
CAMBRIDGE*     CLEAR     28  14  54 N5        30.58R

$$

MDZ017>025-280300-
SOUTHERN MARYLAND

CITY           SKY/WX    TMP DP  RH WIND       PRES   REMARKS
PATUXENT RIVER CLEAR     26  14  60 N9        30.58R WCI  17
ST INIGOES     CLEAR     26  13  57 N3        30.57R
LEONARDTOWN*   CLEAR     25  18  74 CALM      30.59R

$$

MDZ003>005-280300-
NORTH CENTRAL MARYLAND

CITY           SKY/WX    TMP DP  RH WIND       PRES   REMARKS
FREDERICK*     CLEAR     25   0  33 N13       30.63R WCI  13
HAGERSTOWN APT CLEAR     19   2  47 NW8       30.59R WCI   9
WESTMINSTER*   PTCLDY    19   1  45 NW8       30.56R WCI   9

$$

MDZ501>502-280300-
WESTERN MARYLAND

CITY           SKY/WX    TMP DP  RH WIND       PRES   REMARKS
OAKLAND*       CLEAR      7  -8  51 NW3       30.40S
CUMBERLAND*    CLEAR     21   1  42 NW7       30.64R

$$

VAZ025>031-280300-
SHENANDOAH VALLEY

CITY           SKY/WX    TMP DP  RH WIND       PRES   REMARKS
WINCHESTER*    CLEAR     23   0  36 NW10      30.56S WCI  12
FRONT ROYAL*   FAIR      23   5  46 NE3       30.56R
LURAY*         FAIR      27   9  46 N5        30.55R
NEW MARKET*    FAIR      21   4  48 NE3       30.54R
STAUNTON*      CLEAR     23   7  50 NE10      30.53R WCI  13
WAYNESBORO*    FAIR      23   7  51 N6        30.49R

$$

WVZ021-048>050-054>055-280300-
EASTERN WEST VIRGINIA PANHANDLE

CITY           SKY/WX    TMP DP  RH WIND       PRES   REMARKS
MARTINSBURG    CLEAR     20   2  45 NE5       30.59R
PETERSBURG*    NOT AVBL

$$

VAZ036>039-050-280300-
CENTRAL FOOTHILLS

CITY           SKY/WX    TMP DP  RH WIND       PRES   REMARKS
CHARLOTTESVILL CLEAR     27  11  51 CALM      30.53R
CULPEPER*      CLEAR     25   9  50 N6        30.58R
ORANGE*        CLEAR     27  14  59 CALM      30.57R
GORDONSVILLE*  CLOUDY    25  12  57 NE3       30.54R
WARRENTON*     FAIR      26  13  56 N12       30.58R WCI  16

$$

VAZ055>057-280300-
NORTH AND CENTRAL PIEDMONT

CITY           SKY/WX    TMP DP  RH WIND       PRES   REMARKS
FREDERICKSBRG* CLEAR     30  10  42 N6        30.58R
STAFFORD*      CLEAR     27   4  37 N9        30.63R WCI  18

$$

NCZ024-NYZ072-PAZ021-071-VAZ022-071-280300-
OTHER REGIONAL OBSERVATIONS

CITY           SKY/WX    TMP DP  RH WIND       PRES   REMARKS
NEW YORK CITY  CLEAR     25  -1  32 NW7       30.56R
PHILADELPHIA   FAIR      26   4  38 W9        30.59R WCI  17
PITTSBURGH     CLEAR     11  -2  56 CALM      30.59R
ROANOKE        CLEAR     24   7  48 N12       30.53R WCI  13
RICHMOND       CLEAR     28  15  58 NE6       30.56R
RALEIGH        PTCLDY    35  18  49 NE5       30.50R

$$

ANZ530>537-280300-
MARINE OBSERVATIONS

STATION/POSITION TIME  TEMP    WIND        PRES
                       AIR SEA DIR/SP/G
                 (UTC) (F)     (DEG/KT/KT) (MB)
THOMAS PT LIGHT  0200   28 31   10/  8/  9 1036.9R
BALT KEY BRIDGE  0100   28     360/  7/  8 1035.1R
COVE POINT       0100   27      50/  8/ 10 1034.6R
LEWISETTA        0100   29 32              1034.5R
SOLOMONS ISLAND  0106      33                N/A

$$




USA.gov is the U.S. government's official web portal to all federal, state and local government web resources and services.